Location: Enborne
(51.3833°N, 1.3667°W)
Time: 12:58:22
(UTC+00:00)

Cosmos 1844 Rocket - Pass Details

Date: 17 January 2021
Orbit: 826 x 843 km, 71.0° (Epoch: 05 March)

Event Time Altitude Azimuth Distance (km) Brightness Sun altitude
Exits shadow 05:57:11 24° 238° (WSW) 1,675 3.8 -18.8°
Drops below altitude 10° 06:00:31 10° 203° (SSW) 2,430 5.0 -18.3°
Sets 06:03:19 0° 191° (S) 3,356 5.8 -17.9°
